User: anonymous   Login
Location: Castelbiague
(43.0361°N, 0.9246°E)
Time: 21:45:02
(UTC+00:00)
Language:

THORAD AGENA D DEB - Orbit

View from above orbital plane
View from above orbital plane
View from above satellite
View from above satellite

Ground track
Ground track

The orbit data is extracted from the following two-line orbital elements,

1 42528U 70025SJ  22021.39336924  .00002654  00000-0  10403-2 0  9998
2 42528  99.7339  74.3429 0028810 203.9664 156.0175 14.30200140378155
Epoch (UTC): 21 January 2022 09:26:27
Eccentricity: 0.0028810
inclination: 99.7339°
perigee height: 770 km
apogee height: 812 km
right ascension of ascending node: 74.3429°
argument of perigee: 203.9664°
revolutions per day: 14.30200140
mean anomaly at epoch: 156.0175°
orbit number at epoch: 37815

The dashed part of the orbit path shows where the satellite is in the earth's shadow,  

DLR